Weather History for KMCK - September, 2012

Change the Weather History Date:

Monday, September 10, 2012

  Actual Average Record
Temperature  
Mean Temperature 76 °F 67 °F  
Max Temperature 98 °F 82 °F 101 °F (1936)
Min Temperature 54 °F 52 °F 33 °F (1959)
Cooling Degree Days 11    
Growing Degree Days 26 (Base 50)    
Moisture  
Dew Point 40 °F    
Average Humidity 34    
Maximum Humidity 64    
Minimum Humidity 11    
Precipitation  
Precipitation 0.00 in 0.05 in 0.93 in (2007)
Month to date precipitation T 0.51  
Year to date precipitation 7.33 18.22  
Sea Level Pressure  
Sea Level Pressure 29.90 in    
Wind  
Wind Speed 12 mph (South)    
Max Wind Speed 23 mph    
Max Gust Speed 37 mph    
Visibility 10 miles    
Events      
T = Trace of Precipitation, MM = Missing Value Source: NWS Daily Summary

Daily Weather History Graph

Daily Weather History Graph

Search for Another Location

Airport or City:

Trip Planner

Search our weather history database for the weather conditions in past years. The results will help you decide how hot, cold, wet, or windy it might be!

Date:

Astronomy

Sep. 10, 2012 Rise Set
Actual Time 7:18 AM CDT 7:58 PM CDT
Civil Twilight 6:51 AM CDT 8:25 PM CDT
Nautical Twilight 6:19 AM CDT 8:58 PM CDT
Astronomical Twilight 5:45 AM CDT 9:31 PM CDT
Moon 1:41 AM CDT (9/10) 4:29 PM CDT (9/10)
Length of Visible Light 13h 34m
Length of Day
12h 39m
Waning Crescent, 30% of the Moon is Illuminated
Sep 10
Waning Crescent
Sep 15
New
Sep 22
First Quarter
Sep 29
Full
Oct 8
Last Quarter

Hourly Weather History & Observations

Time (CDT) Temp. Dew Point Humidity Pressure Visibility Wind Dir Wind Speed Gust Speed Precip Events Conditions
12:53 AM 62.1 °F 43.0 °F 50% 30.04 in 10.0 mi South 6.9 mph - N/A   Clear
1:53 AM 61.0 °F 43.0 °F 52% 30.03 in 10.0 mi South 6.9 mph - N/A   Clear
2:53 AM 57.9 °F 43.0 °F 58% 30.02 in 10.0 mi SSE 9.2 mph - N/A   Clear
3:53 AM 59.0 °F 44.1 °F 58% 30.01 in 10.0 mi South 10.4 mph 17.3 mph N/A   Clear
4:53 AM 57.0 °F 44.1 °F 62% 29.99 in 10.0 mi South 13.8 mph - N/A   Clear
5:53 AM 57.0 °F 44.1 °F 62% 29.99 in 10.0 mi South 13.8 mph - N/A   Clear
6:53 AM 55.0 °F 43.0 °F 64% 29.99 in 10.0 mi South 6.9 mph - N/A   Clear
7:53 AM 55.9 °F 43.0 °F 62% 29.99 in 10.0 mi South 8.1 mph - N/A   Clear
8:53 AM 60.1 °F 43.0 °F 53% 29.97 in 10.0 mi South 12.7 mph - N/A   Clear
9:53 AM 69.1 °F 42.1 °F 38% 29.95 in 10.0 mi South 12.7 mph - N/A   Clear
10:53 AM 81.0 °F 41.0 °F 24% 29.93 in 10.0 mi SSW 15.0 mph 20.7 mph N/A   Clear
11:53 AM 88.0 °F 42.1 °F 20% 29.90 in 10.0 mi SSW 17.3 mph 27.6 mph N/A   Clear
12:53 PM 91.0 °F 39.9 °F 17% 29.87 in 10.0 mi SSW 20.7 mph 33.4 mph N/A   Clear
1:53 PM 93.9 °F 39.0 °F 15% 29.84 in 10.0 mi SSW 19.6 mph 28.8 mph N/A   Clear
2:53 PM 97.0 °F 36.0 °F 12% 29.81 in 10.0 mi South 19.6 mph 29.9 mph N/A   Clear
3:53 PM 97.0 °F 34.0 °F 11% 29.80 in 10.0 mi South 21.9 mph 36.8 mph N/A   Clear
4:53 PM 96.1 °F 33.1 °F 11% 29.79 in 10.0 mi South 23.0 mph 34.5 mph N/A   Clear
5:53 PM 93.9 °F 34.0 °F 12% 29.79 in 10.0 mi South 20.7 mph 28.8 mph N/A   Clear
6:53 PM 91.0 °F 33.1 °F 13% 29.80 in 10.0 mi South 19.6 mph 25.3 mph N/A   Clear
7:53 PM 84.9 °F 33.1 °F 16% 29.81 in 10.0 mi South 11.5 mph - N/A   Clear
8:53 PM 80.1 °F 37.0 °F 21% 29.82 in 10.0 mi SSE 12.7 mph - N/A   Clear
9:53 PM 78.1 °F 37.9 °F 24% 29.81 in 10.0 mi SSE 16.1 mph - N/A   Clear
10:53 PM 75.9 °F 39.0 °F 26% 29.80 in 10.0 mi South 13.8 mph 23.0 mph N/A   Clear
11:53 PM 75.9 °F 39.9 °F 27% 29.80 in 10.0 mi South 19.6 mph 27.6 mph N/A   Clear